Startpagina
METAR-TAF:

METAR-TAF

Vliegvelden :

Meierwik

Glücksburg, Duitsland

breedte: 54-50N, lengte: 009-30E, hoogte: 27 m

Actueel weer

Dit bericht is 57 minuten geleden gemaakt, om 15:20 UTC
Wind 10 kt uit het noordnoordoosten
Temperatuur 4°C
Vochtigheid 75%
Druk 995 hPa

METAR: ETGG 261520Z AUTO 03010KT //// // ////// 04/00 Q0995 ///

Tijdstip: 17:17 (16:17 UTC)


TAF: ontbreekt

Waarnemingen en weersverwachtingen van meer dan 4000 vliegvelden (METAR en TAF).

De beschikbare stations zijn de gele en rode punten op de kaart.

Ga met uw muis naar het station om de naam te zien.

Klik dan om waarnemingen en weersverwachtingen te zien.

kaart wijzigen: klik op de groene knoppen met een zwart kruis om in te zoomen, op de groene knop met een streepje om uit te zoomen of op de groene pijlen voor aangrenzende kaarten.


METAR-TAF: